Weather History for Port Angeles, WA

Change the Weather History Date:

Thursday, February 27, 2014

  Actual Average Record
Temperature  
Mean Temperature 40 °F -  
Max Temperature 48 °F 50 °F 61 °F (1972)
Min Temperature 32 °F 36 °F 21 °F (1962)
Degree Days  
Heating Degree Days 25    
Moisture  
Dew Point 36 °F    
Average Humidity 82    
Maximum Humidity 96    
Minimum Humidity 56    
Precipitation  
Precipitation 0.01 in - - ()
Sea Level Pressure  
Sea Level Pressure 29.71 in    
Wind  
Wind Speed 2 mph (SE)    
Max Wind Speed 7 mph    
Max Gust Speed -    
Visibility 10 miles    
Events Rain    
Averages and records for this station are not official NWS values.
T = Trace of Precipitation, MM = Missing Value Source: NWS Daily Summary

Daily Weather History Graph

Daily Weather History Graph

Search for Another Location

Airport:

Trip Planner

Search our weather history database for the weather conditions in past years. The results will help you decide how hot, cold, wet, or windy it might be!

Date:

Astronomy

Feb. 27, 2014 Rise Set
Actual Time 6:58 AM PST 5:55 PM PST
Civil Twilight 6:27 AM PST 6:26 PM PST
Nautical Twilight 5:51 AM PST 7:02 PM PST
Astronomical Twilight 5:15 AM PST 7:38 PM PST
Moon 5:40 AM PST (2/27) 4:24 PM PST (2/27)
Length of Visible Light 11h 59m
Length of Day
10h 56m
Waning Crescent, 3% of the Moon is Illuminated
Feb 27
Waning Crescent
Mar 1
New
Mar 8
First Quarter
Mar 16
Full
Mar 23
Last Quarter

Hourly Weather History & Observations

Time (PST) Temp. Windchill Dew Point Humidity Pressure Visibility Wind Dir Wind Speed Gust Speed Precip Events Conditions
12:53 AM 35.1 °F - 33.1 °F 92% 29.73 in 10.0 mi Calm Calm - N/A   Overcast
1:53 AM 36.0 °F - 34.0 °F 93% 29.71 in 10.0 mi Calm Calm - N/A   Overcast
2:53 AM 34.0 °F 31.0 °F 33.1 °F 96% 29.70 in 10.0 mi South 3.5 mph - N/A   Mostly Cloudy
3:53 AM 33.1 °F 30.0 °F 30.9 °F 92% 29.69 in 10.0 mi SSE 3.5 mph - N/A   Partly Cloudy
4:53 AM 32.0 °F - 30.0 °F 92% 29.68 in 10.0 mi Calm Calm - N/A   Mostly Cloudy
5:53 AM 33.1 °F - 30.9 °F 92% 29.68 in 10.0 mi Calm Calm - N/A   Clear
6:53 AM 32.0 °F 27.5 °F 30.0 °F 92% 29.67 in 7.0 mi ESE 4.6 mph - N/A   Clear
7:53 AM 36.0 °F 32.1 °F 34.0 °F 93% 29.67 in 8.0 mi SE 4.6 mph - N/A   Scattered Clouds
8:53 AM 42.1 °F 38.4 °F 39.0 °F 89% 29.68 in 10.0 mi SE 5.8 mph - N/A   Scattered Clouds
9:53 AM 44.1 °F 41.5 °F 39.0 °F 82% 29.69 in 10.0 mi SE 4.6 mph - N/A   Scattered Clouds
10:53 AM 46.9 °F - 37.9 °F 71% 29.70 in 10.0 mi Variable 4.6 mph - N/A   Mostly Cloudy
11:53 AM 46.9 °F - 34.0 °F 61% 29.71 in 10.0 mi East 6.9 mph - N/A   Overcast
12:53 PM 48.0 °F - 33.1 °F 56% 29.70 in 10.0 mi East 3.5 mph - N/A   Overcast
1:53 PM 46.9 °F - 39.0 °F 74% 29.71 in 10.0 mi North 3.5 mph - N/A   Overcast
2:53 PM 48.0 °F - 39.9 °F 74% 29.71 in 10.0 mi Calm Calm - N/A   Overcast
3:53 PM 46.9 °F - 39.0 °F 74% 29.71 in 10.0 mi East 3.5 mph - N/A   Overcast
4:53 PM 46.9 °F - 37.0 °F 68% 29.71 in 10.0 mi SE 3.5 mph - N/A   Overcast
5:53 PM 44.1 °F - 37.9 °F 79% 29.71 in 10.0 mi Calm Calm - N/A   Overcast
6:33 PM 44.1 °F - 37.9 °F 79% 29.72 in 10.0 mi Calm Calm - N/A   Overcast
6:53 PM 43.0 °F - 37.9 °F 82% 29.73 in 10.0 mi Calm Calm - N/A   Overcast
7:53 PM 44.1 °F - 39.0 °F 82% 29.74 in 10.0 mi Calm Calm - N/A   Overcast
8:53 PM 44.1 °F - 39.9 °F 85% 29.75 in 10.0 mi Calm Calm - N/A   Overcast
9:53 PM 44.1 °F - 39.0 °F 82% 29.77 in 10.0 mi Calm Calm - N/A   Overcast
10:53 PM 45.0 °F - 41.0 °F 86% 29.77 in 10.0 mi Calm Calm - N/A   Overcast
11:53 PM 45.0 °F 41.8 °F 42.1 °F 90% 29.76 in 9.0 mi SW 5.8 mph - 0.01 in Rain Light Rain